User: anonymous   Login
Location: Albany
(35.0000°S, 118.0000°E)
Time: 18:35:41
(UTC-04:00)
Language:

Cosmos 1758 Rocket - Orbit

View from above orbital plane
View from above orbital plane
View from above satellite
View from above satellite

Ground track
Ground track

The orbit data is extracted from the following two-line orbital elements,

1 16792U 86046B   16211.89477412 +.00000080 +00000-0 +68859-5 0  9991
2 16792 082.4848 145.6565 0022699 274.7594 146.0598 14.83079469606027
Epoch (UTC): 29 July 2016 21:28:28
Eccentricity: 0.0022699
inclination: 82.4848°
perigee height: 604 km
apogee height: 635 km
right ascension of ascending node: 145.6565°
argument of perigee: 274.7594°
revolutions per day: 14.83079469
mean anomaly at epoch: 146.0598°
orbit number at epoch: 60602

The dashed part of the orbit path shows where the satellite is in the earth's shadow,  

DLR